Вернуться в каталог

FREGAT R/B

АктивенMEO
NORAD 37848·ROCKET BODY·🇷🇺 Russia

Запущен Oct 21, 2011 с Guiana Space Centre

Loading…

Ближайшие Пролёты (ближайшие 24 часа)

TLE

СвежийSource: Space-Track

Эпоха: Sep 9, 2026, 15:33 UTC

1 37848U 11060C   26252.64812074 -.00000108  00000-0  00000-0 0  9997
2 37848  57.3062 346.0990 0006827 328.3301  39.8079  1.67041879 90681

Отслеживайте FREGAT R/B в реальном времени с AllMySat

Download on the App Store